sat.trackr.live / text

‹ back to catalog

STARLINK-11695 [DTC]

NORAD 63551 · 2025-075D

PAYLOAD ACTIVE UNKNOWN

§ Identity

Operator
Country
US
Launch date
2025-04-13
Launch site
AFETR
Launch vehicle
Mass (kg)
RCS (m²)

Purposes: comms

External: N2YO · Heavens-Above · Gunter

§ Orbital elements

Epoch: 2026-05-24T23:47:54.152736Z

Period
91.67 min
Inclination
43.0005°
Eccentricity
0.0001927
Mean motion
15.70883661 rev/d
Perigee alt
355.1 km
Apogee alt
357.7 km
Semi-major
6,734.5 km
B*
9.7947e-4
RAAN
53.4565°
Arg perigee
259.5111°
Mean anomaly
100.5539°
Rev number
6,525

§ Raw data

STARLINK-11695 [DTC]1 63551U 25075D   26144.99159899  .00127411  00000+0  97947-3 0  99992 63551  43.0005  53.4565 0001927 259.5111 100.5539 15.70883661 65251

JSON: /api/v1/satellites/63551 · /tle

For live sub-satellite position, see the globe view (requires WebGL).

§ Visibility from observer

Set your observer location to see the next 7 days of passes ≥ 10°. The values pass through the URL so the page stays shareable.

No JS? Fill the form by hand. The geolocation button needs JavaScript.